Location: Pabrico
(37.5827°N, 122.0063°W)
Time: 08:56:51
(UTC+00:00)

Cosmos 1674 - Visible Passes

Search period start: 24 July 2024 00:00
Search period end: 03 August 2024 00:00
Orbit: 430 x 448 km, 82.5° (Epoch: 23 July)

Date Brightness Start Highest point End Pass type
(mag) Time Alt. Az. Time Alt. Az. Time Alt. Az.
24 Jul 4.2 10:31:15 10° NNW 10:32:49 25° NNW 10:32:49 25° NNW visible
25 Jul 4.9 09:52:24 10° N 09:53:47 22° NNE 09:53:47 22° NNE visible
26 Jul 5.6 09:14:15 10° NNE 09:14:43 12° NE 09:14:43 12° NE visible
26 Jul 5.2 10:48:02 10° NW 10:48:07 10° NW 10:48:07 10° NW visible
27 Jul 5.1 10:08:18 10° NNW 10:09:02 15° NNW 10:09:02 15° NNW visible
28 Jul 5.5 09:29:15 10° N 09:29:54 15° N 09:29:54 15° N visible
30 Jul 5.6 09:44:50 10° NNW 09:44:55 11° NNW 09:44:55 11° NNW visible
31 Jul 5.9 09:05:36 10° N 09:05:40 10° N 09:05:40 10° N visible
